Benson, United Kingdom

12:25 AM BST on April 25, 2017 (GMT +0100)
Benson Air Base

Weather History for EGUB - December, 2013

Change the Weather History Date:

Wednesday, December 4, 2013

  Actual Average Record
Temperature  
Mean Temperature 35 °F -  
Max Temperature 46 °F 44 °F 57 °F (2006)
Min Temperature 24 °F 36 °F 24 °F (1997)
Degree Days  
Heating Degree Days 30    
Moisture  
Dew Point 36 °F    
Average Humidity 85    
Maximum Humidity 100    
Minimum Humidity 66    
Precipitation  
Precipitation 0.01 in - - ()
Sea Level Pressure  
Sea Level Pressure 30.39 in    
Wind  
Wind Speed 5 mph ()    
Max Wind Speed 10 mph    
Max Gust Speed -    
Visibility 6.5 miles    
Events Rain    
Averages and records for this station are not official NWS values.
T = Trace of Precipitation, MM = Missing Value Source: Averaged Metar Reports

Daily Weather History Graph

Daily Weather History Graph

Search for Another Location

Airport or City:

Trip Planner

Search our weather history database for the weather conditions in past years. The results will help you decide how hot, cold, wet, or windy it might be!

Date:

Astronomy

Dec. 04, 2013 Rise Set
Actual Time 7:52 AM GMT 3:56 PM GMT
Civil Twilight 7:12 AM GMT 4:36 PM GMT
Nautical Twilight 6:30 AM GMT 5:18 PM GMT
Astronomical Twilight 5:49 AM GMT 5:59 PM GMT
Moon 9:02 AM GMT (12/4) 5:55 PM GMT (12/4)
Length of Visible Light 9h 23m
Length of Day
8h 04m
Waxing Crescent, 3% of the Moon is Illuminated
Dec 4
Waxing Crescent
Dec 9
First Quarter
Dec 17
Full
Dec 25
Last Quarter
Jan 1
New

Hourly Weather History & Observations

Time (GMT) Temp. Windchill Dew Point Humidity Pressure Visibility Wind Dir Wind Speed Gust Speed Precip Events Conditions
12:00 AM 41 °F - 36 °F 77% 30.34 in 6 mi South 6.9 mph - -   Overcast
12:50 AM 41.0 °F - 37.4 °F 87% 30.30 in 4.3 mi South 2.3 mph - N/A   Overcast
1:50 AM 41.0 °F 37.1 °F 37.4 °F 87% 30.30 in 3.7 mi SSE 5.8 mph - N/A   Overcast
2:50 AM 42.8 °F 39.3 °F 39.2 °F 87% 30.30 in 6.2 mi South 5.8 mph - N/A   Overcast
3:00 AM 43 °F - 38 °F 78% 30.32 in 7 mi South 5.8 mph - -   Overcast
3:50 AM 42.8 °F 40.1 °F 39.2 °F 87% 30.30 in 6.2 mi SE 4.6 mph - N/A   Overcast
4:50 AM 44.6 °F 43.1 °F 39.2 °F 81% 30.30 in 6.2 mi South 3.5 mph - N/A   Overcast
5:50 AM 44.6 °F 41.4 °F 41.0 °F 87% 30.30 in 6.2 mi South 5.8 mph - N/A   Mostly Cloudy
6:00 AM 44 °F - 40 °F 82% 30.31 in 6 mi South 5.8 mph - -   Overcast
6:50 AM 44.6 °F 43.1 °F 41.0 °F 87% 30.30 in 6.2 mi SSE 3.5 mph - N/A   Overcast
7:50 AM 44.6 °F 42.2 °F 42.8 °F 93% 30.30 in 6.2 mi SE 4.6 mph - N/A Rain Light Rain
8:34 AM 46.4 °F - 42.8 °F 87% 30.33 in 2.8 mi South 2.3 mph - N/A Rain Light Rain
8:41 AM 46.4 °F 45.2 °F 42.8 °F 87% 30.33 in 1.2 mi WNW 3.5 mph - N/A   Light Drizzle
8:50 AM 44.6 °F 40.2 °F 44.6 °F 100% 30.33 in 1.2 mi WNW 8.1 mph - N/A   Light Drizzle
8:59 AM 44.6 °F 40.2 °F 44.6 °F 100% 30.36 in 3.1 mi WNW 8.1 mph - N/A   Light Drizzle
9:00 AM 45 °F - 44 °F 94% 30.36 in 1 mi WNW 8.1 mph - - Rain Light Drizzle
9:24 AM 44.6 °F 41.4 °F 42.8 °F 93% 30.36 in 4.3 mi WNW 5.8 mph - N/A   Haze
9:50 AM 44.6 °F 42.2 °F 42.8 °F 93% 30.36 in 6.2 mi WNW 4.6 mph - N/A   Mostly Cloudy
10:50 AM 44.6 °F 42.2 °F 41.0 °F 87% 30.39 in 6.2 mi West 4.6 mph - N/A   Mostly Cloudy
11:50 AM 46.4 °F 42.4 °F 39.2 °F 76% 30.39 in 6.2 mi WNW 8.1 mph - N/A   Mostly Cloudy
12:00 PM 46 °F - 39 °F 69% 30.41 in 19 mi WNW 8.1 mph - -   Partly Cloudy
12:50 PM 46.4 °F 42.9 °F 37.4 °F 71% 30.42 in 6.2 mi WNW 6.9 mph - N/A   Mostly Cloudy
1:50 PM 46.4 °F 41.5 °F 35.6 °F 66% 30.42 in 6.2 mi NW 10.4 mph - N/A   Mostly Cloudy
2:50 PM 44.6 °F 43.1 °F 37.4 °F 76% 30.42 in 6.2 mi WNW 3.5 mph - N/A   Mostly Cloudy
3:00 PM 44 °F - 37 °F 68% 30.45 in 19 mi WNW 3.5 mph - -   Scattered Clouds
3:50 PM 41.0 °F 38.0 °F 35.6 °F 81% 30.45 in 6.2 mi WNW 4.6 mph - N/A   Scattered Clouds
4:50 PM 35.6 °F - 33.8 °F 93% 30.48 in 6.2 mi Calm Calm - N/A   Partly Cloudy
5:50 PM 39.2 °F 35.9 °F 32.0 °F 75% 30.48 in - West 4.6 mph - N/A   Clear
6:00 PM 39 °F - 32 °F 69% 30.50 in 12 mi West 4.6 mph - -  
6:50 PM 26.6 °F - 23.0 °F 86% 30.48 in - ESE 1.2 mph - N/A   Clear
7:50 PM 30.2 °F - 30.2 °F 100% 30.48 in - East 1.2 mph - N/A   Clear
8:50 PM 24.8 °F - 23.0 °F 93% 30.48 in - East 2.3 mph - N/A   Clear
9:00 PM 25 °F - 22 °F 85% 30.52 in 12 mi East 2.3 mph - -  
9:50 PM 26.6 °F - 24.8 °F 93% 30.48 in - SE 2.3 mph - N/A   Clear
10:50 PM 24.8 °F 20.5 °F 23.0 °F 93% 30.48 in - SSE 3.5 mph - N/A   Clear
11:50 PM 28.4 °F 23.3 °F 26.6 °F 93% 30.48 in - SE 4.6 mph - N/A   Clear